Showing default

ETIHAD-SAT, 63226

Orbit data source: Space-Track

ETIHAD-SAT, 63226 is a payload satellite owned by Rashid Space Ctr (AE) in SSO that was launched on Sat, 15 Mar 2025 UTC via an FALCON 9 launch vehicle from the Air Force Western Test Range (AFWTR). Payload-class satellites include a variety of spacecraft equipped with specific instruments for various scientific and technological missions. These include communications satellites like Starlink; space stations such as the ISS; scientific satellites like the Hubble; Earth observation satellites from companies like Planet Labs, Umbra, and HawkEye 360; GPS; miniature CubeSats for education and research; and military/defense satellites.

Loading next visibility...
Identifier
63226, 2025-052S
Orbit
SSO
Country
Flag of AEAE / UAE
Related business
Manufacturer
MBRSC/SATREC
Mission
Operational Civil Radar Imaging
Bus & Motor
ETIHAD, Unknown motor
Mass
220 kg wet, ~200 kg dry
Launch date (UTC)
2025-03-15 (1 year ago)
Launch vehicle
FALCON 9
Launch site
Air Force Western Test Range (AFWTR)
Object type
Payload
Rocket body
Debris
Shape & HBR
Box + 2 Pan, 0.9 m
Radar Cross Section
2.585 m², Large (>1 m²)

Expand to show TLE details & history
Last TLE update: 13 hours ago

TLE from 13 hours ago
0 ETIHAD-SAT
1 63226U 25052S   26166.58338363  .00003732  00000-0  16603-3 0  9997
2 63226  97.3969  59.1466 0006409 134.3910 225.7852 15.22083078 69591
Epoch: 2026-06-15T14:00Z
TLE epoch observation values (Epoch: 2026-06-15T14:00:04.345Z)
Latitude
-0.00004°
Longitude
-54.73918°
Altitude
505.728 km
Speed
7.61 km/s
True Right ascension
03h 56m 35s
True Declination
0° 00' 00"
Sunlit
Object was in daylight at epoch
Visualization orbit readout
Latitude
Unknown
Longitude
Unknown
Altitude
Unknown
Speed
Unknown
Apparent Right ascension
Unknown
Apparent Declination
Unknown
Sunlit
N/A
Visualization observer readout
Local Sidereal Time
13:40:54
Azimuth
Unknown
Elevation
Unknown
Doppler factor
Unknown
Orbital elements
Apogee altitude
500.927 km
Perigee altitude
492.115 km
Semi-major axis
6,874.658 km
Eccentricity
0.00064
Inclination
97.3969°
RAAN
59.1466°
Arg. of periapsis
134.391°
True anomaly
225.73259°
Mean anomaly
225.7852°
Eccentric anomaly
225.75889°
Mean motion
3.80773 °/min
Orbital period
94.54 mins
BSTAR
0.00016603
Loading maneuver chart data...
Computing Atmospheric mass density...
Loading historical data...
Loading historical data...
Loading historical data...
Loading historical data...
Loading historical data...
Loading historical data...
Loading historical data...

Documentation

Showing up to 5 results
|